Milwaukee Timmerman, WI

5:48 AM CDT on May 29, 2017 (GMT -0500)
Timmerman

Weather History for KMWC - April, 2014

Change the Weather History Date:

Sunday, April 13, 2014

  Actual Average Record
Temperature  
Mean Temperature 47 °F -  
Max Temperature 55 °F 56 °F 79 °F (1977)
Min Temperature 39 °F 36 °F 19 °F (1950)
Degree Days  
Heating Degree Days 18    
Moisture  
Dew Point 42 °F    
Average Humidity 90    
Maximum Humidity 100    
Minimum Humidity 77    
Precipitation  
Precipitation 0.56 in - - ()
Sea Level Pressure  
Sea Level Pressure 29.67 in    
Wind  
Wind Speed 7 mph (NE)    
Max Wind Speed 24 mph    
Max Gust Speed 32 mph    
Visibility 6 miles    
Events Fog , Rain    
Averages and records for this station are not official NWS values.
T = Trace of Precipitation, MM = Missing Value Source: NWS Daily Summary

Daily Weather History Graph

Daily Weather History Graph

Search for Another Location

Airport or City:

Trip Planner

Search our weather history database for the weather conditions in past years. The results will help you decide how hot, cold, wet, or windy it might be!

Date:

Astronomy

Apr. 13, 2014 Rise Set
Actual Time 6:13 AM CDT 7:32 PM CDT
Civil Twilight 5:44 AM CDT 8:02 PM CDT
Nautical Twilight 5:08 AM CDT 8:37 PM CDT
Astronomical Twilight 4:31 AM CDT 9:15 PM CDT
Moon 6:08 PM CDT (4/13) 5:14 AM CDT (4/13)
Length of Visible Light 14h 17m
Length of Day
13h 19m
Waxing Gibbous, 97% of the Moon is Illuminated
Apr 13
Waxing Gibbous
Apr 15
Full
Apr 22
Last Quarter
Apr 29
New
May 6
First Quarter

Hourly Weather History & Observations

Time (CDT) Temp. Windchill Dew Point Humidity Pressure Visibility Wind Dir Wind Speed Gust Speed Precip Events Conditions
12:15 AM 44.6 °F 38.4 °F 41.0 °F 87% 29.73 in 10.0 mi ENE 12.7 mph 17.3 mph N/A   Mostly Cloudy
12:35 AM 46.4 °F 42.4 °F 42.8 °F 87% 29.73 in 10.0 mi ENE 8.1 mph - N/A   Mostly Cloudy
12:55 AM 46.4 °F 43.5 °F 42.8 °F 87% 29.72 in 10.0 mi East 5.8 mph - N/A   Overcast
1:15 AM 46.4 °F 45.2 °F 42.8 °F 87% 29.70 in 10.0 mi East 3.5 mph - N/A   Overcast
1:35 AM 46.4 °F 42.9 °F 41.0 °F 81% 29.71 in 10.0 mi ESE 6.9 mph 16.1 mph N/A   Overcast
1:55 AM 46.4 °F - 42.8 °F 87% 29.70 in 10.0 mi Calm Calm - N/A   Overcast
2:15 AM 46.4 °F - 42.8 °F 87% 29.71 in 10.0 mi Calm Calm - N/A   Mostly Cloudy
2:35 AM 44.6 °F - 42.8 °F 93% 29.69 in 10.0 mi Calm Calm - N/A Rain Light Rain
2:55 AM 44.6 °F 41.4 °F 42.8 °F 93% 29.71 in 10.0 mi North 5.8 mph - N/A   Overcast
3:15 AM 46.4 °F 42.9 °F 42.8 °F 87% 29.70 in 7.0 mi NE 6.9 mph - 0.01 in Rain Light Rain
3:35 AM 46.4 °F - 42.8 °F 87% 29.76 in 3.0 mi Calm Calm - 0.16 in Rain Rain
3:55 AM 46.4 °F 44.3 °F 44.6 °F 93% 29.68 in 7.0 mi SSE 4.6 mph - 0.20 in Rain Light Rain
4:15 AM 46.4 °F 43.5 °F 44.6 °F 93% 29.69 in 7.0 mi SSW 5.8 mph - 0.01 in   Mostly Cloudy
4:35 AM 46.4 °F - 42.8 °F 87% 29.67 in 5.0 mi Calm Calm - 0.01 in   Scattered Clouds
4:55 AM 44.6 °F - 42.8 °F 93% 29.66 in 4.0 mi Calm Calm - 0.01 in   Clear
5:15 AM 44.6 °F 43.1 °F 41.0 °F 87% 29.67 in 0.8 mi SW 3.5 mph - N/A   Scattered Clouds
5:35 AM 44.6 °F 40.7 °F 42.8 °F 93% 29.68 in 1.2 mi WNW 6.9 mph - N/A   Mist
5:55 AM 44.6 °F 40.7 °F 42.8 °F 93% 29.62 in 2.5 mi NNE 6.9 mph - N/A   Clear
6:15 AM 44.6 °F - 42.8 °F 93% 29.63 in 3.0 mi Calm Calm - N/A   Clear
6:35 AM 42.8 °F 41.1 °F 41.0 °F 93% 29.67 in 0.8 mi SW 3.5 mph - N/A   Mist
6:45 AM 44.6 °F 41.4 °F 42.8 °F 93% 29.70 in 0.5 mi SSW 5.8 mph - N/A Fog Fog
7:45 AM 48.2 °F - 46.4 °F 93% 29.72 in 3.0 mi NNW 9.2 mph - N/A   Clear
8:01 AM 48.2 °F - 46.4 °F 93% 29.74 in 1.5 mi NNW 8.1 mph - N/A   Mostly Cloudy
8:45 AM 48.2 °F - 46.4 °F 93% 29.77 in - NW 8.1 mph - N/A   Overcast
9:45 AM 48.2 °F - 46.4 °F 93% 29.75 in 1.2 mi North 6.9 mph - N/A   Overcast
10:45 AM 48.2 °F - 46.4 °F 93% 29.78 in 3.0 mi Calm Calm - N/A   Overcast
11:45 AM 53.6 °F - 48.2 °F 82% 29.78 in 10.0 mi NNW 9.2 mph - N/A   Mostly Cloudy
12:45 PM 55.4 °F - 48.2 °F 77% 29.79 in 10.0 mi Calm Calm - N/A   Overcast
1:45 PM 46.4 °F 40.4 °F 41.0 °F 81% 29.77 in 5.0 mi ENE 13.8 mph 19.6 mph N/A   Haze
2:45 PM 42.8 °F 37.5 °F 39.2 °F 87% 29.75 in 3.0 mi ENE 9.2 mph - N/A   Overcast
3:45 PM 41.0 °F 35.8 °F 37.4 °F 87% 29.76 in 1.0 mi ENE 8.1 mph - N/A   Overcast
4:45 PM 39.2 °F 33.6 °F 39.2 °F 100% 29.72 in 2.0 mi NE 8.1 mph - N/A Rain Light Rain
5:45 PM 41.0 °F 35.8 °F 39.2 °F 93% 29.70 in 3.0 mi ENE 8.1 mph 17.3 mph N/A Rain Light Rain
6:45 PM 41.0 °F 33.9 °F 37.4 °F 87% 29.61 in 2.0 mi NE 12.7 mph 19.6 mph N/A Rain Rain
7:45 PM 39.2 °F 33.0 °F 37.4 °F 93% 29.62 in 2.0 mi NNE 9.2 mph 16.1 mph N/A Rain Rain
8:45 PM 41.0 °F 39.0 °F 39.2 °F 93% 29.57 in 7.0 mi East 3.5 mph 19.6 mph N/A   Overcast
9:15 PM 41.0 °F 33.9 °F 37.4 °F 87% 29.56 in 5.0 mi NE 12.7 mph - 0.02 in Rain Light Rain
9:35 PM 41.0 °F 35.2 °F 37.4 °F 87% 29.55 in 10.0 mi NE 9.2 mph - 0.06 in Rain Light Rain
9:55 PM 41.0 °F 33.5 °F 37.4 °F 87% 29.53 in 10.0 mi NNE 13.8 mph - 0.06 in Rain Light Rain
10:15 PM 41.0 °F 34.7 °F 37.4 °F 87% 29.52 in 7.0 mi NNE 10.4 mph 16.1 mph 0.02 in Rain Rain
10:35 PM 41.0 °F 36.4 °F 39.2 °F 93% 29.52 in 7.0 mi NNE 6.9 mph 19.6 mph 0.06 in Rain Rain
10:55 PM 42.8 °F 34.8 °F 41.0 °F 93% 29.51 in 7.0 mi NNE 17.3 mph - 0.12 in Rain Rain
11:15 PM 42.8 °F 33.3 °F 41.0 °F 93% 29.50 in 10.0 mi North 24.2 mph 31.1 mph 0.02 in Rain Light Rain
11:35 PM 41.0 °F 30.9 °F 39.2 °F 93% 29.49 in 3.0 mi NNE 24.2 mph 32.2 mph 0.12 in   Unknown
11:55 PM 39.2 °F 30.5 °F 37.4 °F 93% 29.53 in 4.0 mi North 16.1 mph 25.3 mph 0.17 in Rain Rain